Location: D�derode
(51.8092°N, 10.1065°E)
Time: 17:30:08
(UTC+00:00)

X-37B - Pass Details

Date: 21 April 2021
Orbit: 386 x 389 km, 45.0° (Epoch: 08 May)

Event Time Altitude Azimuth Distance (km) Brightness Sun altitude
Exits shadow 02:01:06 16° 146° (SE) 1,103 2.7 -17.3°
Drops below altitude 10° 02:02:35 10° 120° (ESE) 1,414 3.6 -17.1°
Sets 02:05:06 0° 99° (E) 2,270 5.0 -16.8°
